Location: Quedlinburg
(51.7921°N, 11.1414°E)
Time: 06:20:11
(UTC+02:00)

METEOR M2 - Pass Details

Date: 24 March 2026
Orbit: 817 x 824 km, 98.5° (Epoch: 17 April)

Event Time Altitude Azimuth Distance (km) Brightness Sun altitude
Rises 04:12:23 0° 18° (NNE) 3,374 ? -18.2°
Reaches altitude 10° 04:14:51 10° 25° (NNE) 2,437 ? -17.8°
Maximum altitude 04:20:02 46° 98° (E) 1,104 ? -17.1°
Drops below altitude 10° 04:25:10 10° 171° (S) 2,417 ? -16.4°
Sets 04:27:36 0° 178° (S) 3,344 ? -16.0°
